This demonstration page uses our WeatherBlox Daily Observations layout. Learn more.

Left ArrowRight Arrow

Hourly Observations for March 13, 2017

Temp ( °F °C ) Dew Point ( °F °C ) Humidity (%) Winds ( mph kmh ) Pressure ( in mb ) Visibility ( mi km ) Precip ( " mm )
12:53 am 00:53 Clear 31 -0.6 17 -8.3 56 56 E 8 13 30.33 1027 10 16 N/A
1:53 am 01:53 Clear 31 -0.6 16 -8.9 54 54 E 6 9 30.31 1026 10 16 N/A
2:53 am 02:53 Mostly Clear 31 -0.6 17 -8.3 56 56 E 7 11 30.30 1026 10 16 N/A
3:53 am 03:53 Clear 30 -1.1 17 -8.3 58 58 E 7 11 30.28 1025 10 16 N/A
4:53 am 04:53 Clear 28 -2.2 18 -7.8 66 66 NE 5 7 30.28 1026 10 16 N/A
5:53 am 05:53 Clear 29 -1.7 19 -7.2 66 66 ENE 7 11 30.28 1026 10 16 N/A
6:53 am 06:53 Clear 28 -2.2 19 -7.2 69 69 E 9 15 30.26 1025 10 16 N/A
7:53 am 07:53 Sunny 28 -2.2 19 -7.2 69 69 E 7 11 30.22 1023 10 16 N/A
8:53 am 08:53 Sunny 30 -1.1 18 -7.8 61 61 E 9 15 30.22 1023 10 16 N/A
9:53 am 09:53 Sunny 32 undefined 19 -7.2 59 59 E 10 17 30.20 1023 10 16 N/A
10:53 am 10:53 Sunny 33 0.6 19 -7.2 56 56 ESE 3 6 30.18 1022 10 16 N/A
11:53 am 11:53 Sunny 35 1.7 19 -7.2 52 52 VRB 3 6 30.16 1021 10 16 N/A
12:53 pm 12:53 Sunny 38 3.3 20 -6.7 48 48 VRB 3 6 30.14 1021 10 16 N/A
1:53 pm 13:53 Sunny 40 4.4 21 -6.1 47 47 N N/A 30.11 1020 10 16 N/A
2:53 pm 14:53 Cloudy 39 3.9 20 -6.7 46 46 N N/A 30.10 1019 10 16 N/A
3:53 pm 15:53 Cloudy 39 3.9 23 -5 53 53 N 6 9 30.09 1019 10 16 N/A
4:14 pm 16:14 Cloudy with Light Snow 36 2.2 26 -3.3 67 67 W 6 9 30.09 1019 2 3 N/A
4:22 pm 16:22 Cloudy with Light Snow 36 2.2 27 -2.8 70 70 N 7 11 30.09 1019 3 4 N/A
4:28 pm 16:28 Cloudy with Light Snow 35 1.7 28 -2.2 76 76 N 3 6 30.12 1020 2 2 N/A
4:53 pm 16:53 Cloudy with Light Snow 34 1.1 30 -1.1 85 85 NNW 5 7 30.10 1019 2 3 N/A
5:01 pm 17:01 Mostly Cloudy with Light Snow 33 0.6 30 -1.1 89 89 N 5 7 30.12 1020 1 2 N/A
5:08 pm 17:08 Mostly Cloudy with Light Snow 33 0.6 30 -1.1 89 89 N 5 7 30.12 1020 1 1 N/A
5:24 pm 17:24 Cloudy with Snow 33 0.6 31 -0.6 92 92 NNE 5 7 30.12 1020 1 1 0.01 0.25
5:49 pm 17:49 Cloudy with Snow 32 undefined 30 -1 93 93 N 8 13 30.12 1020 1 1 0.03 0.76
5:53 pm 17:53 Cloudy with Snow 32 undefined 31 -0.6 96 96 NNE 7 11 30.09 1019 1 1 0.03 0.76
6:32 pm 18:32 Cloudy with Light Snow 32 undefined 30 -1.1 92 92 N 9 15 30.12 1020 1 1 0.01 0.25
6:44 pm 18:44 Cloudy with Light Snow 32 undefined 30 -1.1 92 92 N 8 13 30.12 1020 1 2 0.01 0.25
6:53 pm 18:53 Cloudy with Light Snow 32 undefined 30 -1.1 92 92 N 7 11 30.07 1018 1 2 0.01 0.25
7:10 pm 19:10 Cloudy with Light Snow 32 undefined 30 -1.1 92 92 N 8 13 30.12 1020 2 3 N/A
7:20 pm 19:20 Cloudy with Light Snow 32 undefined 31 -0.6 96 96 N 5 7 30.12 1020 2 2 N/A
7:38 pm 19:38 Cloudy with Light Snow 32 undefined 31 -0.6 96 96 N 6 9 30.12 1020 1 2 0.01 0.25
7:53 pm 19:53 Cloudy with Light Snow 32 undefined 31 -0.6 96 96 N 5 7 30.06 1018 2 2 0.01 0.25
7:56 pm 19:56 Cloudy with Light Snow 32 undefined 31 -0.6 96 96 N 5 7 30.09 1019 2 3 N/A
8:01 pm 20:01 Cloudy with Light Snow 32 undefined 31 -0.6 96 96 NNE 5 7 30.09 1019 3 4 N/A
8:11 pm 20:11 Cloudy with Light Snow 32 undefined 31 -0.6 96 96 N 5 7 30.09 1019 3 4 N/A
8:18 pm 20:18 Cloudy with Light Snow 32 undefined 30 -1.1 92 92 N 7 11 30.12 1020 3 5 N/A
8:43 pm 20:43 Cloudy with Light Snow 32 undefined 30 -1.1 92 92 N 6 9 30.09 1019 3 5 N/A
8:53 pm 20:53 Cloudy with Light Snow 32 undefined 30 -1.1 92 92 N 7 11 30.06 1018 4 6 N/A
9:05 pm 21:05 Cloudy with Mist and Fog 32 undefined 30 -1.1 92 92 N 6 9 30.12 1020 5 8 N/A
9:53 pm 21:53 Cloudy with Light Snow 31 -0.6 29 -1.7 92 92 VRB 6 9 30.08 1019 3 5 N/A
10:16 pm 22:16 Cloudy with Light Snow 31 -0.6 29 -1.7 92 92 NNE 6 9 30.12 1020 4 6 N/A
10:53 pm 22:53 Cloudy 30 -1.1 27 -2.8 88 88 N 9 15 30.08 1019 7 11 N/A
11:53 pm 23:53 Cloudy 29 -1.7 27 -2.8 92 92 N 8 13 30.08 1019 8 13 N/A

Powered by AerisWeather